Weather History for EHRD - August, 2013

Change the Weather History Date:

Wednesday, August 28, 2013

  Actual Average Record
Temperature  
Mean Temperature 62 °F -  
Max Temperature 72 °F 64 °F 75 °F (2002)
Min Temperature 52 °F 51 °F 48 °F (1998)
Degree Days  
Heating Degree Days 3    
Growing Degree Days 12 (Base 50)    
Moisture  
Dew Point 56 °F    
Average Humidity 83    
Maximum Humidity 100    
Minimum Humidity 43    
Precipitation  
Precipitation 0.08 in - - ()
Sea Level Pressure  
Sea Level Pressure 30.12 in    
Wind  
Wind Speed 3 mph ()    
Max Wind Speed 11 mph    
Max Gust Speed -    
Visibility 5.7 miles    
Events Fog , Rain    
Averages and records for this station are not official NWS values.
T = Trace of Precipitation, MM = Missing Value Source: Averaged Metar Reports

Daily Weather History Graph

Daily Weather History Graph

Search for Another Location

Airport or City:

Trip Planner

Search our weather history database for the weather conditions in past years. The results will help you decide how hot, cold, wet, or windy it might be!

Date:

Astronomy

Aug. 28, 2013 Rise Set
Actual Time 6:47 AM CEST 8:38 PM CEST
Civil Twilight 6:11 AM CEST 9:13 PM CEST
Nautical Twilight 5:27 AM CEST 9:57 PM CEST
Astronomical Twilight 4:37 AM CEST 10:47 PM CEST
Moon No Moon Rise 3:22 PM CEST (8/28)
Length of Visible Light 15h 01m
Length of Day
13h 50m
Waning Gibbous, 50% of the Moon is Illuminated
Aug 28
Waning Gibbous
Sep 5
New
Sep 12
First Quarter
Sep 19
Full
Sep 27
Last Quarter

Hourly Weather History & Observations

Time (CEST) Temp. Dew Point Humidity Pressure Visibility Wind Dir Wind Speed Gust Speed Precip Events Conditions
12:00 AM 57 °F 54 °F 84% 30.06 in 14 mi North 2.2 mph - -   Partly Cloudy
12:25 AM 57.2 °F 53.6 °F 88% 30.06 in 6.2 mi Variable 2.3 mph - N/A   Unknown
12:55 AM 55.4 °F 53.6 °F 94% 30.04 in 6.2 mi Variable 2.3 mph - N/A   Unknown
1:00 AM 56 °F 53 °F 86% 30.07 in 9 mi North 2.2 mph - -   Partly Cloudy
1:25 AM 57.2 °F 55.4 °F 94% 30.06 in 6.2 mi North 1.2 mph - N/A   Unknown
1:55 AM 55.4 °F 55.4 °F 100% 30.06 in 5.6 mi Variable 2.3 mph - N/A   Unknown
2:00 AM 54 °F 54 °F 100% 30.07 in 3 mi North 2.2 mph - -   Mist
2:25 AM 53.6 °F 53.6 °F 100% 30.06 in - Variable 1.2 mph - N/A   Mist
2:55 AM 53.6 °F 53.6 °F 100% 30.06 in 1.4 mi Variable 1.2 mph - N/A   Mist
3:00 AM 53 °F 53 °F 100% 30.07 in 0 mi Calm Calm - - Fog Fog
3:25 AM 53.6 °F 53.6 °F 100% 30.06 in 0.2 mi Calm Calm - N/A Fog Fog
3:55 AM 53.6 °F 53.6 °F 100% 30.06 in 0.2 mi NNW 1.2 mph - N/A Fog Fog
4:00 AM 54 °F 54 °F 99% 30.08 in 0 mi Calm Calm - - Fog Fog
4:25 AM 53.6 °F 53.6 °F 100% 30.06 in 0.6 mi NNE 1.2 mph - N/A   Mist
4:55 AM 53.6 °F 53.6 °F 100% 30.06 in 0.9 mi Variable 1.2 mph - N/A   Mist
5:00 AM 52 °F 51 °F 95% 30.09 in 0 mi NW 2.2 mph - - Fog Fog
5:25 AM 53.6 °F 53.6 °F 100% 30.06 in 0.2 mi Calm Calm - N/A Fog Fog
5:55 AM 53.6 °F 53.6 °F 100% 30.06 in 0.9 mi Calm Calm - N/A   Scattered Clouds
6:00 AM 53 °F 53 °F 100% 30.09 in 0 mi Calm Calm - - Fog Fog
6:25 AM 53.6 °F 53.6 °F 100% 30.09 in 0.7 mi Variable 1.2 mph - N/A   Mist
6:55 AM 55.4 °F 55.4 °F 100% 30.09 in 0.3 mi West 3.5 mph - N/A Fog Fog
7:00 AM 54 °F 54 °F 100% 30.11 in 1 mi 2.2 mph - - Fog Fog
7:25 AM 55.4 °F 55.4 °F 100% 30.09 in - Variable 2.3 mph - N/A   Mist
7:55 AM 57.2 °F 57.2 °F 100% 30.09 in 0.2 mi Calm Calm - N/A Fog Fog
8:00 AM 57 °F 57 °F 98% 30.12 in 0 mi Calm Calm - - Fog Fog
8:25 AM 57.2 °F 57.2 °F 100% 30.09 in 2.2 mi Variable 3.5 mph - N/A   Mist
8:55 AM 60.8 °F 60.8 °F 100% 30.12 in - Variable 1.2 mph - N/A   Mist
9:00 AM 63 °F 60 °F 89% 30.14 in 3 mi NNE 2.2 mph - - Fog Fog
9:25 AM 62.6 °F 59.0 °F 88% 30.12 in 4.3 mi Variable 2.3 mph - N/A   Unknown
9:55 AM 64.4 °F 60.8 °F 88% 30.12 in 4.3 mi NNE 3.5 mph - N/A   Unknown
10:00 AM 66 °F 60 °F 77% 30.15 in 6 mi NNE 4.5 mph - -   Mist
10:25 AM 66.2 °F 59.0 °F 78% 30.12 in 5.6 mi NNE 5.8 mph - N/A   Unknown
10:55 AM 69.8 °F 55.4 °F 60% 30.15 in 6.2 mi North 5.8 mph - N/A   Unknown
11:00 AM 70 °F 54 °F 47% 30.16 in 12 mi North 4.5 mph - -   Mostly Cloudy
11:25 AM 71.6 °F 55.4 °F 57% 30.15 in 6.2 mi NNE 5.8 mph - N/A   Unknown
11:55 AM 71.6 °F 53.6 °F 53% 30.15 in 6.2 mi NNE 6.9 mph - N/A   Unknown
12:00 PM 71 °F 53 °F 43% 30.16 in 14 mi NNE 6.7 mph - -   Overcast
12:25 PM 69.8 °F 55.4 °F 60% 30.15 in 6.2 mi North 5.8 mph - N/A   Partly Cloudy
12:55 PM 69.8 °F 55.4 °F 60% 30.12 in 6.2 mi North 4.6 mph - N/A   Scattered Clouds
1:00 PM 69 °F 55 °F 51% 30.16 in 17 mi North 4.5 mph - -   Overcast
1:25 PM 66.2 °F 60.8 °F 83% 30.15 in 6.2 mi North 8.1 mph - N/A Rain Rain
1:55 PM 66.2 °F 62.6 °F 88% 30.15 in 6.2 mi North 4.6 mph - N/A Rain Light Rain
2:00 PM 67 °F 62 °F 80% 30.16 in 10 mi North 2.2 mph - - Rain Rain
2:25 PM 69.8 °F 62.6 °F 78% 30.15 in 6.2 mi NNW 3.5 mph - N/A   Unknown
2:55 PM 68.0 °F 59.0 °F 73% 30.15 in 6.2 mi North 5.8 mph - N/A Rain Light Rain
3:00 PM 68 °F 60 °F 69% 30.16 in 2 mi North 4.5 mph - - Rain Light Rain Showers
3:25 PM 68.0 °F 60.8 °F 78% 30.15 in 6.2 mi Variable 1.2 mph - N/A   Scattered Clouds
3:55 PM 69.8 °F 59.0 °F 68% 30.12 in 6.2 mi NW 3.5 mph - N/A   Unknown
4:25 PM 71.6 °F 60.8 °F 69% 30.12 in 6.2 mi NNW 8.1 mph - N/A   Partly Cloudy
4:55 PM 68.0 °F 60.8 °F 78% 30.15 in 6.2 mi North 9.2 mph - N/A   Unknown
5:00 PM 68 °F 60 °F 69% 30.16 in 19 mi NNW 8.9 mph - -   Partly Cloudy
5:25 PM 68.0 °F 60.8 °F 78% 30.15 in 6.2 mi NNW 8.1 mph - N/A   Unknown
5:55 PM 68.0 °F 59.0 °F 73% 30.15 in 6.2 mi NNW 10.4 mph - N/A   Unknown
6:00 PM 69 °F 58 °F 59% 30.16 in 19 mi NNW 11.2 mph - -   Partly Cloudy
6:25 PM 69.8 °F 57.2 °F 64% 30.15 in 6.2 mi NNW 9.2 mph - N/A   Unknown
6:55 PM 68.0 °F 59.0 °F 73% 30.15 in 6.2 mi NNW 8.1 mph - N/A   Unknown
7:00 PM 68 °F 59 °F 66% 30.17 in 18 mi NNW 8.9 mph - -   Partly Cloudy
7:25 PM 68.0 °F 59.0 °F 73% 30.15 in 6.2 mi NNW 8.1 mph - N/A   Unknown
7:55 PM 66.2 °F 55.4 °F 68% 30.15 in 6.2 mi North 5.8 mph - N/A   Unknown
8:00 PM 65 °F 57 °F 67% 30.17 in 22 mi North 6.7 mph - -   Partly Cloudy
8:25 PM 64.4 °F 57.2 °F 77% 30.15 in 6.2 mi North 5.8 mph - N/A   Unknown
8:55 PM 62.6 °F 57.2 °F 82% 30.15 in 6.2 mi NNW 4.6 mph - N/A   Unknown
9:00 PM 63 °F 56 °F 73% 30.18 in 2 mi NNW 4.5 mph - -   Light Haze
9:25 PM 62.6 °F 55.4 °F 77% 30.15 in 6.2 mi North 4.6 mph - N/A   Unknown
9:55 PM 60.8 °F 55.4 °F 82% 30.15 in 6.2 mi North 3.5 mph - N/A   Unknown
10:00 PM 61 °F 55 °F 74% 30.19 in 25 mi North 2.2 mph - -  
10:25 PM 60.8 °F 55.4 °F 82% 30.18 in 6.2 mi Variable 2.3 mph - N/A   Unknown
10:55 PM 57.2 °F 55.4 °F 94% 30.18 in 6.2 mi ENE 2.3 mph - N/A   Unknown
11:00 PM 57 °F 54 °F 88% 30.19 in 14 mi ENE 2.2 mph - -  
11:25 PM 55.4 °F 55.4 °F 100% 30.18 in 6.2 mi Variable 2.3 mph - N/A   Unknown
11:55 PM 55.4 °F 53.6 °F 94% 30.18 in 6.2 mi Variable 1.2 mph - N/A   Unknown